KLM99C EHAM-EGPH

Flight info

Callsign KLM99C
Flight time N/A
Altitude 34000
Route BERGI L602 SUPUR P1 GODOS DCT ROXAT DCT BAZNA DCT ANMAZ DCT AGPED
Aircraft B739/M-SDE2E3FGHIRWXY/LB1

Departure

Time 2026-04-30 14:49
Airport Amsterdam Airport Schiphol (EHAM)

Arrival

Time N/A
Airport Edinburgh Airport (EGPH)
Time Latitude Longitude Altitude Speed Heading
2026-04-30 14:21 52.31000 4.77314 -2 ft 0 kts 182°
2026-04-30 14:37 52.31018 4.77315 8 ft 4 kts 175°
2026-04-30 14:37 52.31045 4.77310 -2 ft 4 kts 178°
2026-04-30 14:37 52.31065 4.77315 -2 ft 4 kts 247°
2026-04-30 14:38 52.31069 4.77349 -2 ft 4 kts 266°
2026-04-30 14:38 52.31070 4.77361 -2 ft 1 kts 264°
2026-04-30 14:40 52.31070 4.77360 -2 ft 0 kts 264°
2026-04-30 14:40 52.31071 4.77338 -2 ft 6 kts 273°
2026-04-30 14:41 52.31074 4.77239 -2 ft 9 kts 274°
2026-04-30 14:41 52.31078 4.77133 -2 ft 10 kts 273°
2026-04-30 14:41 52.31082 4.77024 -2 ft 10 kts 274°
2026-04-30 14:41 52.31119 4.76944 -2 ft 9 kts 341°
2026-04-30 14:42 52.31179 4.76972 -2 ft 10 kts 32°
2026-04-30 14:42 52.31237 4.77034 -2 ft 9 kts 33°
2026-04-30 14:42 52.31276 4.77076 -2 ft 8 kts 33°
2026-04-30 14:42 52.31329 4.77134 -2 ft 8 kts 34°
2026-04-30 14:43 52.31392 4.77188 -2 ft 12 kts
2026-04-30 14:43 52.31478 4.77197 -2 ft 12 kts
2026-04-30 14:43 52.31548 4.77194 -2 ft 9 kts 326°
2026-04-30 14:43 52.31567 4.77060 -2 ft 17 kts 266°
2026-04-30 14:44 52.31560 4.76855 -2 ft 18 kts 266°
2026-04-30 14:44 52.31553 4.76654 -2 ft 17 kts 266°
2026-04-30 14:44 52.31546 4.76461 -2 ft 17 kts 266°
2026-04-30 14:44 52.31540 4.76274 -2 ft 16 kts 266°
2026-04-30 14:45 52.31534 4.76094 -2 ft 16 kts 266°
2026-04-30 14:45 52.31528 4.75922 -2 ft 15 kts 266°
2026-04-30 14:45 52.31522 4.75756 -2 ft 14 kts 266°
2026-04-30 14:45 52.31517 4.75598 -2 ft 14 kts 267°
2026-04-30 14:46 52.31512 4.75447 -2 ft 13 kts 266°
2026-04-30 14:46 52.31507 4.75301 -2 ft 13 kts 266°
2026-04-30 14:46 52.31502 4.75158 -2 ft 12 kts 267°
2026-04-30 14:46 52.31497 4.75019 -2 ft 12 kts 266°
2026-04-30 14:47 52.31492 4.74884 -2 ft 12 kts 266°
2026-04-30 14:47 52.31488 4.74762 -2 ft 9 kts 267°
2026-04-30 14:47 52.31515 4.74674 -2 ft 9 kts 331°
2026-04-30 14:47 52.31576 4.74660 -2 ft 9 kts 357°
2026-04-30 14:48 52.31635 4.74673 -1 ft 9 kts 20°
2026-04-30 14:48 52.31666 4.74745 -1 ft 8 kts 85°
2026-04-30 14:48 52.31667 4.74756 -1 ft 6 kts 85°
2026-04-30 14:48 52.31681 4.75192 -4 ft 70 kts 86°
2026-04-30 14:49 52.31720 4.76290 -2 ft 121 kts 87°
2026-04-30 14:49 52.31765 4.77858 101 ft 148 kts 87°
2026-04-30 14:49 52.31830 4.79576 478 ft 155 kts 89°
2026-04-30 14:49 52.32076 4.81305 926 ft 160 kts 56°
2026-04-30 14:50 52.34261 4.82256 1713 ft 198 kts 344°
2026-04-30 14:50 52.35582 4.81317 1949 ft 220 kts 340°
2026-04-30 14:51 52.38543 4.79109 2631 ft 243 kts 335°
2026-04-30 14:51 52.39912 4.77305 2838 ft 266 kts 315°
2026-04-30 14:51 52.42634 4.72658 3685 ft 294 kts 315°
2026-04-30 14:52 52.44087 4.70262 4305 ft 297 kts 315°
2026-04-30 14:52 52.47140 4.65693 5691 ft 299 kts 335°
2026-04-30 14:52 52.49059 4.64399 6393 ft 298 kts 342°
2026-04-30 14:53 52.52938 4.61984 7764 ft 301 kts 342°
2026-04-30 14:53 52.54902 4.60737 8458 ft 304 kts 342°
2026-04-30 14:54 52.58872 4.58179 9867 ft 309 kts 342°
2026-04-30 14:54 52.62492 4.54114 10790 ft 338 kts 315°
2026-04-30 14:55 52.65675 4.48344 11625 ft 351 kts 313°
2026-04-30 14:55 52.67363 4.45270 11821 ft 370 kts 314°
2026-04-30 14:55 52.70916 4.38915 12977 ft 380 kts 314°
2026-04-30 14:56 52.74553 4.32510 14378 ft 386 kts 315°
2026-04-30 14:56 52.78273 4.25994 15659 ft 392 kts 315°
2026-04-30 14:57 52.80151 4.22704 16301 ft 396 kts 315°
2026-04-30 14:57 52.83961 4.16017 17565 ft 403 kts 314°
2026-04-30 14:58 52.87809 4.09245 18781 ft 410 kts 314°
2026-04-30 14:58 52.89765 4.05796 19338 ft 412 kts 314°
2026-04-30 14:58 52.93707 3.98828 20495 ft 417 kts 314°
2026-04-30 14:59 52.97689 3.91769 21617 ft 421 kts 314°
2026-04-30 15:00 53.03733 3.81016 23303 ft 428 kts 314°
2026-04-30 15:00 53.07823 3.73713 24283 ft 433 kts 314°
2026-04-30 15:01 53.11954 3.66312 25156 ft 439 kts 314°
2026-04-30 15:01 53.13333 3.63839 25432 ft 441 kts 313°
2026-04-30 15:01 53.18189 3.55102 26459 ft 445 kts 313°
2026-04-30 15:02 53.20302 3.51291 26798 ft 450 kts 313°
2026-04-30 15:02 53.22436 3.47438 27129 ft 453 kts 313°
2026-04-30 15:03 53.28210 3.34832 28345 ft 459 kts 301°
2026-04-30 15:03 53.31588 3.25714 29064 ft 464 kts 301°
2026-04-30 15:04 53.35055 3.16538 29844 ft 468 kts 302°
2026-04-30 15:04 53.40277 3.02865 31506 ft 457 kts 302°
2026-04-30 15:05 53.46196 2.90171 32434 ft 460 kts 311°
2026-04-30 15:06 53.50426 2.82148 33193 ft 460 kts 311°
2026-04-30 15:06 53.54645 2.74008 33768 ft 461 kts 310°
2026-04-30 15:07 53.58807 2.65843 34313 ft 461 kts 310°
2026-04-30 15:08 53.67040 2.49534 34352 ft 456 kts 309°
2026-04-30 15:09 53.77267 2.29135 34349 ft 454 kts 309°
2026-04-30 15:10 53.85398 2.12800 34354 ft 454 kts 309°
2026-04-30 15:11 53.97586 1.88110 34364 ft 456 kts 308°
2026-04-30 15:13 54.07746 1.67336 34359 ft 457 kts 308°
2026-04-30 15:14 54.21015 1.37146 34359 ft 453 kts 294°
2026-04-30 15:17 54.33368 0.93439 34345 ft 454 kts 293°
2026-04-30 15:19 54.44350 0.54364 34331 ft 455 kts 293°